• în Republica Moldova
  • Lista ţărilor
  • Pe 7 zile
  • Temperatura apei
  • Hartă satelitară
  • Meteo pe hartă
  • Widget-uri
  • user-avatar
    Intrare

    Meteo pe oră la Uige

    Astăzi, 28 Iunie, Miercuri

    Timp Temperatura Precipitaţii Vânt Presiune Umiditate
    00:00 +19°C° 0 mm 1 m/s 692 mmHg 86%
    01:00 +18°C° 0 mm 1 m/s 692 mmHg 93%
    02:00 +18°C° 0 mm 1 m/s 692 mmHg 94%
    03:00 +16°C° 0 mm 1 m/s 692 mmHg 95%
    04:00 +16°C° 0 mm 1 m/s 691 mmHg 96%
    05:00 +16°C° 0 mm 1 m/s 692 mmHg 93%
    06:00 +18°C° 0 mm 1 m/s 692 mmHg 90%
    07:00 +20°C° 0 mm 1 m/s 693 mmHg 80%
    08:00 +23°C° 0 mm 2 m/s 693 mmHg 65%
    09:00 +26°C° 0 mm 2 m/s 693 mmHg 50%
    10:00 +30°C° 0 mm 2 m/s 694 mmHg 35%
    11:00 +31°C° 0 mm 2 m/s 694 mmHg 31%
    12:00 +34°C° 0 mm 2 m/s 693 mmHg 26%
    13:00 +35°C° 0 mm 2 m/s 693 mmHg 22%
    14:00 +35°C° 0 mm 2 m/s 692 mmHg 22%
    15:00 +35°C° 0 mm 2 m/s 692 mmHg 22%
    16:00 +35°C° 0 mm 2 m/s 691 mmHg 22%
    17:00 +31°C° 0 mm 2 m/s 691 mmHg 30%
    18:00 +27°C° 0 mm 2 m/s 691 mmHg 37%
    19:00 +24°C° 0 mm 2 m/s 690 mmHg 45%
    20:00 +23°C° 0 mm 2 m/s 691 mmHg 50%
    21:00 +21°C° 0 mm 2 m/s 691 mmHg 54%
    22:00 +21°C° 0 mm 1 m/s 692 mmHg 59%
    23:00 +20°C° 0 mm 1 m/s 692 mmHg 68%

    Mâine, 29 Iunie, Joi

    Timp Temperatura Precipitaţii Vânt Presiune Umiditate
    00:00 +19°C° 0 mm 1 m/s 692 mmHg 77%
    01:00 +18°C° 0 mm 1 m/s 692 mmHg 86%
    02:00 +18°C° 0 mm 1 m/s 691 mmHg 88%
    03:00 +18°C° 0 mm 1 m/s 691 mmHg 91%
    04:00 +16°C° 0 mm 1 m/s 691 mmHg 93%
    05:00 +18°C° 0 mm 1 m/s 691 mmHg 90%
    06:00 +19°C° 0 mm 1 m/s 692 mmHg 88%
    07:00 +19°C° 0 mm 1 m/s 692 mmHg 86%
    08:00 +23°C° 0 mm 1 m/s 693 mmHg 69%
    09:00 +26°C° 0 mm 1 m/s 694 mmHg 52%
    10:00 +30°C° 0 mm 2 m/s 695 mmHg 34%
    11:00 +32°C° 0 mm 2 m/s 694 mmHg 29%
    12:00 +35°C° 0 mm 2 m/s 694 mmHg 24%
    13:00 +35°C° 0 mm 1 m/s 694 mmHg 19%
    14:00 +35°C° 0 mm 1 m/s 693 mmHg 19%
    15:00 +34°C° 0 mm 1 m/s 692 mmHg 19%
    16:00 +34°C° 0 mm 1 m/s 692 mmHg 19%
    17:00 +30°C° 0 mm 1 m/s 691 mmHg 25%
    18:00 +27°C° 0 mm 1 m/s 691 mmHg 31%
    19:00 +23°C° 0 mm 2 m/s 691 mmHg 38%
    20:00 +22°C° 0 mm 1 m/s 692 mmHg 45%
    21:00 +21°C° 0 mm 1 m/s 692 mmHg 53%
    22:00 +20°C° 0 mm 1 m/s 693 mmHg 60%
    23:00 +20°C° 0 mm 1 m/s 692 mmHg 69%

    Poimâine, 30 Iunie, Vineri

    Timp Temperatura Precipitaţii Vânt Presiune Umiditate
    00:00 +19°C° 0 mm 1 m/s 692 mmHg 78%
    01:00 +18°C° 0 mm 1 m/s 692 mmHg 86%
    02:00 +18°C° 0 mm 1 m/s 692 mmHg 89%
    03:00 +18°C° 0 mm 1 m/s 692 mmHg 92%
    04:00 +16°C° 0 mm 1 m/s 691 mmHg 95%
    05:00 +18°C° 0 mm 1 m/s 692 mmHg 92%
    06:00 +18°C° 0 mm 1 m/s 692 mmHg 90%
    07:00 +19°C° 0 mm 1 m/s 693 mmHg 88%
    08:00 +22°C° 0 mm 1 m/s 693 mmHg 70%
    09:00 +26°C° 0 mm 1 m/s 694 mmHg 53%
    10:00 +30°C° 0 mm 1 m/s 695 mmHg 36%
    11:00 +32°C° 0 mm 1 m/s 695 mmHg 30%
    12:00 +34°C° 0 mm 1 m/s 694 mmHg 24%
    13:00 +36°C° 0 mm 1 m/s 694 mmHg 19%
    14:00 +35°C° 0 mm 1 m/s 693 mmHg 19%
    15:00 +35°C° 0 mm 1 m/s 692 mmHg 19%
    16:00 +34°C° 0 mm 1 m/s 691 mmHg 19%
    17:00 +30°C° 0 mm 1 m/s 691 mmHg 27%
    18:00 +26°C° 0 mm 1 m/s 691 mmHg 35%
    19:00 +23°C° 0 mm 1 m/s 691 mmHg 42%
    20:00 +22°C° 0 mm 1 m/s 691 mmHg 47%
    21:00 +21°C° 0 mm 1 m/s 692 mmHg 52%
    22:00 +21°C° 0 mm 1 m/s 692 mmHg 57%
    23:00 +20°C° 0 mm 1 m/s 692 mmHg 64%

    1 Iulie, Sâmbătă

    Timp Temperatura Precipitaţii Vânt Presiune Umiditate
    00:00 +19°C° 0 mm 1 m/s 692 mmHg 71%
    01:00 +18°C° 0 mm 1 m/s 691 mmHg 78%
    02:00 +18°C° 0 mm 1 m/s 691 mmHg 81%
    03:00 +18°C° 0 mm 1 m/s 691 mmHg 84%
    04:00 +18°C° 0 mm 1 m/s 691 mmHg 87%
    05:00 +18°C° 0 mm 1 m/s 691 mmHg 83%
    06:00 +19°C° 0 mm 1 m/s 692 mmHg 79%
    07:00 +19°C° 0 mm 1 m/s 692 mmHg 75%
    08:00 +23°C° 0 mm 2 m/s 693 mmHg 60%
    09:00 +27°C° 0 mm 2 m/s 694 mmHg 45%
    10:00 +31°C° 0 mm 2 m/s 694 mmHg 29%
    11:00 +34°C° 0 mm 2 m/s 694 mmHg 25%
    12:00 +35°C° 0 mm 2 m/s 693 mmHg 22%
    13:00 +37°C° 0 mm 2 m/s 692 mmHg 18%
    14:00 +37°C° 0 mm 2 m/s 692 mmHg 18%
    15:00 +35°C° 0 mm 1 m/s 691 mmHg 18%
    16:00 +35°C° 0 mm 1 m/s 691 mmHg 19%
    17:00 +31°C° 0 mm 1 m/s 691 mmHg 27%
    18:00 +27°C° 0 mm 1 m/s 691 mmHg 35%
    19:00 +23°C° 0 mm 1 m/s 691 mmHg 44%
    20:00 +22°C° 0 mm 1 m/s 691 mmHg 51%
    21:00 +22°C° 0 mm 1 m/s 692 mmHg 59%
    22:00 +20°C° 0 mm 2 m/s 692 mmHg 67%
    23:00 +20°C° 0 mm 1 m/s 692 mmHg 75%

    2 Iulie, Duminică

    Timp Temperatura Precipitaţii Vânt Presiune Umiditate
    00:00 +19°C° 0 mm 1 m/s 692 mmHg 83%
    01:00 +18°C° 0 mm 1 m/s 691 mmHg 92%
    02:00 +16°C° 0 mm 1 m/s 691 mmHg 93%
    03:00 +16°C° 0 mm 1 m/s 691 mmHg 94%
    04:00 +16°C° 0 mm 1 m/s 691 mmHg 96%
    05:00 +16°C° 0 mm 1 m/s 691 mmHg 93%
    06:00 +18°C° 0 mm 1 m/s 692 mmHg 91%
    07:00 +19°C° 0 mm 1 m/s 693 mmHg 88%
    08:00 +22°C° 0 mm 1 m/s 693 mmHg 71%
    09:00 +26°C° 0 mm 1 m/s 694 mmHg 54%
    10:00 +30°C° 0 mm 2 m/s 695 mmHg 37%
    11:00 +32°C° 0 mm 2 m/s 694 mmHg 31%
    12:00 +34°C° 0 mm 2 m/s 693 mmHg 26%
    13:00 +36°C° 0 mm 2 m/s 693 mmHg 21%
    14:00 +35°C° 0 mm 1 m/s 692 mmHg 21%
    15:00 +35°C° 0 mm 1 m/s 691 mmHg 21%
    16:00 +34°C° 0 mm 1 m/s 691 mmHg 21%
    17:00 +30°C° 0 mm 1 m/s 691 mmHg 31%
    18:00 +27°C° 0 mm 1 m/s 690 mmHg 41%
    19:00 +23°C° 0 mm 1 m/s 690 mmHg 51%
    20:00 +22°C° 0 mm 1 m/s 691 mmHg 54%
    21:00 +21°C° 0 mm 1 m/s 691 mmHg 57%
    22:00 +21°C° 0 mm 1 m/s 692 mmHg 60%
    23:00 +20°C° 0 mm 1 m/s 691 mmHg 68%

    3 Iulie, Luni

    Timp Temperatura Precipitaţii Vânt Presiune Umiditate
    00:00 +19°C° 0 mm 1 m/s 691 mmHg 76%
    01:00 +18°C° 0 mm 1 m/s 691 mmHg 84%
    02:00 +18°C° 0 mm 1 m/s 691 mmHg 87%
    03:00 +16°C° 0 mm 1 m/s 691 mmHg 90%
    04:00 +16°C° 0 mm 1 m/s 691 mmHg 94%
    05:00 +16°C° 0 mm 1 m/s 691 mmHg 91%
    06:00 +18°C° 0 mm 1 m/s 692 mmHg 89%
    07:00 +19°C° 0 mm 1 m/s 692 mmHg 87%
    08:00 +23°C° 0 mm 1 m/s 693 mmHg 69%
    09:00 +27°C° 0 mm 1 m/s 694 mmHg 52%
    10:00 +31°C° 0 mm 1 m/s 695 mmHg 34%
    11:00 +33°C° 0 mm 1 m/s 694 mmHg 29%
    12:00 +34°C° 0 mm 1 m/s 693 mmHg 24%
    13:00 +36°C° 0 mm 1 m/s 693 mmHg 19%
    14:00 +35°C° 0 mm 1 m/s 692 mmHg 19%
    15:00 +35°C° 0 mm 1 m/s 692 mmHg 19%
    16:00 +34°C° 0 mm 1 m/s 691 mmHg 19%
    17:00 +30°C° 0 mm 1 m/s 691 mmHg 27%
    18:00 +27°C° 0 mm 1 m/s 691 mmHg 35%
    19:00 +23°C° 0 mm 1 m/s 691 mmHg 43%
    20:00 +22°C° 0 mm 1 m/s 691 mmHg 49%
    21:00 +22°C° 0 mm 1 m/s 691 mmHg 54%
    22:00 +20°C° 0 mm 2 m/s 692 mmHg 60%
    23:00 +20°C° 0 mm 1 m/s 692 mmHg 70%
    Arată mai mult